This is the latest recevied weather packets stored in our database for station/object IU2EVW-13. If no packets are shown the sender has not sent any weather packets the latest 10 day(s).
| Time | Temp. | Humidity | Pressure | Rain* | Wind** | Luminosity | Snow |
|---|---|---|---|---|---|---|---|
| 1787647528 | 17.22° C | 92% | 1014.9 hPa | - | - | - | - |
| 1787646327 | 16.67° C | 95% | 1015 hPa | - | - | - | - |
| 1787645126 | 16.11° C | 96% | 1014.9 hPa | - | - | - | - |
| 1787643924 | 15.56° C | 98% | 1014.8 hPa | - | - | - | - |
| 1787642723 | 15° C | 99% | 1014.7 hPa | - | - | - | - |
| 1787641522 | 15.56° C | 99% | 1014.4 hPa | - | - | - | - |
| 1787640320 | 15.56° C | 100% | 1014.1 hPa | - | - | - | - |
| 1787639119 | 15.56° C | 100% | 1014 hPa | - | - | - | - |
| 1787637918 | 15.56° C | 100% | 1013.6 hPa | - | - | - | - |
| 1787636717 | 15.56° C | 100% | 1013.4 hPa | - | - | - | - |
| 1787635515 | 16.11° C | 100% | 1013.3 hPa | - | - | - | - |
| 1787634314 | 15.56° C | 99% | 1013.1 hPa | - | - | - | - |
| 1787633113 | 15.56° C | 100% | 1013 hPa | - | - | - | - |
| 1787631912 | 15.56° C | 100% | 1012.9 hPa | - | - | - | - |
| 1787630710 | 15.56° C | 100% | 1013 hPa | - | - | - | - |
| 1787629509 | 15.56° C | 100% | 1013.2 hPa | - | - | - | - |
| 1787628308 | 15.56° C | 99% | 1013.2 hPa | - | - | - | - |
| 1787627107 | 15.56° C | 100% | 1013.9 hPa | - | - | - | - |
| 1787625905 | 15.56° C | 98% | 1013.7 hPa | - | - | - | - |
| 1787624704 | 16.11° C | 97% | 1013.9 hPa | - | - | - | - |
| 1787623503 | 16.11° C | 96% | 1014.3 hPa | - | - | - | - |
| 1787622302 | 16.11° C | 95% | 1014.2 hPa | - | - | - | - |
| 1787621100 | 16.11° C | 94% | 1014.6 hPa | - | - | - | - |
| 1787619899 | 16.11° C | 96% | 1014.9 hPa | - | - | - | - |
| 1787618698 | 16.11° C | 95% | 1015.3 hPa | - | - | - | - |
* Rain since midnight (hover to see other rain measurements)
** Current wind speed in m/s (hover to see current wind gust speed)